RH
31 28 26 24 22 20 20 19 17 14 12 10 9 8 7 7 7 7 7 7 7 8 9 10 11 11 12 13 13 13 13 13 13 14 14 14 14 15 16 17 16 18
33 29 28 26 24 22 21 20 18 15 13 12 11 10 8 8 8 7 8 8 8 10 10 11 13 13 13 13 13 13 13 14 14 14 14 14 15 15 15 16 15 16
35 32 30 29 26 25 23 20 19 17 15 14 12 12 10 9 9 8 8 10 10 11 12 13 14 14 14 13 13 14 13 14 14 14 14 14 15 15 14 15 15 16
37 35 32 31 28 26 24 22 21 19 16 15 14 14 12 11 11 10 10 11 11 12 13 14 14 14 14 14 13 14 13 13 13 13 14 14 14 14 13 14 14 14
37 36 34 32 30 28 27 25 24 22 18 17 17 16 14 13 13 12 12 11 11 13 13 14 14 14 14 14 14 14 13 12 14 13 13 14 13 14 14 14 14 14
37 37 34 33 32 30 30 28 27 24 20 18 18 17 16 15 14 12 12 12 11 12 13 13 14 14 14 14 14 14 13 12 13 13 13 13 13 14 14 14 14 14
37 37 36 35 34 33 32 29 27 25 21 20 18 17 17 16 15 13 12 13 12 12 13 13 13 14 14 14 14 13 13 13 14 14 13 13 13 14 15 15 14 14
36 36 35 36 35 34 32 29 28 25 22 21 19 18 18 17 16 15 14 15 14 12 12 12 13 14 13 14 13 13 13 13 13 13 12 12 13 14 14 14 14 14
36 35 34 34 33 32 31 29 28 26 23 21 20 19 19 18 16 15 16 17 17 14 13 12 12 13 13 13 13 13 13 13 13 13 12 13 13 14 14 14 15 13
36 35 34 33 32 31 30 30 28 26 24 22 22 21 20 19 18 18 19 19 18 15 12 12 12 12 13 13 13 13 13 13 13 12 12 13 12 13 14 14 14 14
36 36 35 33 33 32 31 30 28 26 26 24 24 24 22 21 21 21 21 19 16 14 12 12 13 12 13 13 13 13 13 13 13 12 12 13 13 14 14 14 15 14
38 37 36 35 34 33 31 30 28 27 26 26 27 26 23 22 22 21 19 18 16 15 14 14 14 14 14 13 13 13 13 13 12 12 12 13 13 13 14 15 15 14
39 38 37 35 34 34 33 31 29 27 27 27 28 26 24 22 22 21 19 19 19 17 17 17 15 15 14 13 14 13 13 13 12 13 13 13 14 15 15 15 15 16
40 39 37 36 35 34 34 33 30 28 28 28 27 26 24 21 20 21 21 21 21 20 20 19 17 17 15 14 14 13 13 13 13 14 14 13 14 14 15 15 14 15
42 41 39 37 37 36 36 35 33 31 30 29 27 25 23 22 23 23 23 23 23 22 21 21 19 17 15 15 15 14 14 14 14 14 14 15 16 15 15 16 15 16
45 43 41 40 40 39 38 37 35 33 31 28 27 25 24 25 25 25 25 24 24 24 23 22 20 17 16 16 16 15 15 15 16 17 15 15 15 15 15 14 16 19
48 46 44 43 42 41 41 39 36 33 29 26 26 26 26 27 25 25 26 26 25 25 24 22 20 18 17 18 17 18 20 19 16 16 20 25 28 29 26 23 31 41
51 49 47 46 45 44 42 39 35 30 27 28 27 26 26 26 27 28 28 27 26 25 23 22 19 19 19 19 18 20 36 55 54 48 56 65 66 67 61 53 60 74
54 52 51 49 47 45 42 39 35 31 30 29 27 27 28 28 29 29 27 27 26 24 24 22 20 21 19 20 21 17 39 83 99 89 92 97 94 92 89 81 81 91
58 56 54 52 50 48 45 41 38 34 32 30 29 30 30 28 28 27 26 26 25 24 26 22 20 23 18 20 25 16 29 78 105 99 99 102 96 93 94 93 92 95
61 59 57 56 53 51 49 45 41 37 34 34 33 31 29 26 26 27 26 26 26 26 27 23 20 23 21 21 23 18 35 83 106 99 99 102 97 92 90 89 93 99
62 61 61 59 56 55 53 47 43 40 36 35 33 30 29 27 27 28 26 26 27 27 27 24 21 22 22 24 23 22 49 91 104 96 99 100 90 76 61 54 61 77
63 62 61 60 59 58 54 48 45 41 38 36 33 30 29 28 27 27 27 27 28 28 28 24 21 23 24 25 24 25 50 85 95 92 95 87 68 48 31 24 28 41
64 63 61 62 61 58 54 49 46 42 39 36 34 32 30 28 27 28 28 29 29 30 30 27 24 25 25 27 26 26 48 80 90 88 87 76 57 40 27 24 27 30
66 65 64 63 62 59 54 50 46 43 40 37 35 34 32 30 30 30 31 33 33 33 33 31 28 26 26 29 27 24 45 79 93 91 86 73 61 53 39 28 30 37
69 68 66 64 62 58 54 51 47 44 42 40 37 35 34 32 33 35 35 36 37 37 35 32 30 27 26 29 29 26 39 68 86 88 85 78 78 80 64 41 35 44
Wind_Speed
34 34 34 33 33 32 31 30 29 29 29 29 28 26 24 22 21 19 18 16 15 14 13 12 11 10 10 9 8 8 7 7 7 7 7 7 7 7 7 7 7 7
35 35 34 33 32 31 31 30 29 29 28 28 27 25 24 22 20 19 18 17 16 15 14 13 12 12 11 11 10 10 9 9 9 9 9 8 8 9 8 8 9 9
36 35 35 34 33 32 32 30 29 28 27 26 26 24 23 21 20 20 19 18 17 16 16 15 14 13 13 12 11 11 11 11 11 11 11 10 10 10 10 10 10 10
37 36 36 35 34 33 32 31 29 28 27 26 26 24 22 21 20 20 19 19 18 17 17 17 16 15 14 14 13 13 13 12 12 13 12 12 11 11 11 11 12 12
38 37 36 35 34 33 33 32 31 30 28 27 26 24 23 22 21 21 20 20 20 19 19 18 17 17 16 16 15 14 14 14 14 14 14 14 13 13 13 13 14 14
38 38 37 36 35 34 33 32 31 30 29 28 27 25 24 23 22 22 22 21 21 21 20 20 19 18 17 17 17 16 16 16 16 15 16 16 15 15 14 14 15 16
38 38 37 37 36 35 34 33 32 30 29 28 27 26 25 24 23 22 22 22 21 21 21 21 20 19 19 18 18 18 17 17 17 17 17 17 17 17 16 16 16 17
38 38 38 37 37 36 34 33 32 31 30 28 28 27 26 25 24 23 23 22 22 22 21 21 21 20 20 20 19 19 19 19 19 18 19 19 19 19 18 17 18 19
38 38 38 37 37 36 35 34 33 32 31 30 29 28 26 25 24 23 22 22 22 22 21 22 22 21 21 21 20 20 20 20 20 20 20 21 21 21 19 19 19 20
38 38 38 38 37 37 36 35 34 33 32 30 29 27 26 25 24 23 22 22 22 22 22 22 22 22 22 21 21 20 20 20 20 20 22 22 22 22 21 21 21 21
38 39 39 38 38 37 36 36 35 33 32 30 29 27 26 25 24 24 23 23 23 23 22 22 22 22 22 21 21 21 21 21 21 22 22 23 23 22 22 22 22 22
38 39 39 39 38 37 36 36 35 33 32 30 29 28 27 26 25 24 24 23 23 23 22 22 22 21 21 21 20 21 21 21 22 22 23 23 23 23 23 23 23 23
39 39 39 39 38 38 37 36 35 33 32 31 29 28 27 26 24 24 23 23 23 22 22 22 21 21 21 21 21 21 21 22 22 22 23 23 24 24 24 24 24 24
40 39 39 39 38 38 37 36 35 34 32 30 29 27 26 25 24 23 23 22 22 22 22 21 21 22 22 21 21 22 21 22 22 22 23 23 24 25 24 24 25 25
39 38 38 38 37 37 37 36 35 33 32 30 28 27 26 24 23 22 23 23 23 22 22 22 22 22 22 22 21 21 21 21 21 22 23 24 24 25 25 25 26 26
37 37 37 37 37 37 37 36 35 33 31 30 28 27 25 24 24 23 24 24 23 23 22 23 23 23 22 21 21 20 20 20 21 22 23 24 24 25 25 26 26 27
36 36 37 37 37 37 37 36 35 33 31 30 29 27 26 25 25 25 24 24 23 23 23 23 23 22 21 20 20 19 20 20 21 21 22 23 24 24 25 26 27 27
36 36 37 37 37 37 37 35 34 33 32 31 29 27 26 26 25 25 25 24 23 23 23 23 23 22 20 19 19 18 17 19 20 21 22 23 24 24 25 26 27 26
37 37 37 38 37 37 36 35 34 34 33 31 29 27 27 26 26 25 25 24 23 23 23 23 22 21 20 19 19 18 16 17 19 21 23 24 24 24 24 25 26 26
36 37 37 37 37 36 36 35 35 34 33 31 29 28 27 27 26 26 25 24 23 22 22 22 22 22 20 19 19 19 17 17 19 21 23 24 25 25 25 26 27 27
37 37 37 37 36 36 36 36 35 35 33 30 29 28 28 27 26 25 24 23 22 22 22 22 22 21 20 19 19 18 16 16 18 21 22 24 25 26 26 27 27 26
38 37 37 37 36 36 36 36 36 35 33 31 30 28 27 26 25 24 23 23 22 21 22 23 23 22 21 20 19 18 16 16 19 21 23 24 26 28 29 29 30 30
38 38 38 37 37 37 37 37 37 36 34 32 30 28 27 26 25 24 23 22 21 21 22 23 23 22 21 20 19 18 17 17 20 21 22 25 27 28 29 30 32 32
40 40 39 38 38 38 38 38 37 36 34 32 30 28 27 26 24 23 22 22 22 22 22 22 23 23 22 21 20 18 17 18 20 21 22 25 27 27 28 30 31 32
40 39 39 38 38 38 38 38 37 36 34 31 29 27 25 23 22 21 21 22 22 21 21 22 23 23 23 22 21 19 18 18 19 20 23 25 26 27 28 30 31 31
38 38 38 38 38 38 37 37 36 35 32 30 28 25 23 22 21 21 21 22 21 21 22 23 24 24 24 23 22 20 19 19 19 21 24 26 26 26 27 30 31 31
Wind_Direction
214 214 215 217 219 219 218 217 215 214 214 215 214 213 210 209 208 206 207 207 207 207 206 205 206 205 207 208 212 218 223 231 238 240 240 244 249 253 257 262 268 269
214 215 216 217 218 218 220 221 221 219 219 219 218 216 212 210 209 209 209 209 209 209 208 208 209 210 212 214 217 221 225 230 238 243 245 247 251 256 261 266 270 272
214 215 216 217 218 219 220 221 222 223 222 222 220 218 215 212 211 211 210 211 212 212 211 211 213 216 218 221 223 227 231 234 239 246 250 250 252 257 263 268 271 274
215 216 217 219 220 221 221 220 221 223 222 222 221 218 216 213 213 213 211 213 214 215 216 216 217 220 223 226 230 232 237 241 244 250 255 256 259 263 267 271 275 275
216 218 219 220 221 221 221 221 221 221 220 220 219 218 217 214 214 214 214 215 216 218 220 221 222 225 227 230 233 237 242 247 251 255 260 264 267 269 271 274 277 279
217 218 218 220 221 221 221 221 222 222 220 219 219 218 218 217 217 217 217 218 218 220 223 225 227 228 231 233 236 241 245 249 254 258 263 268 271 273 275 276 279 281
217 218 218 219 220 221 221 221 221 221 221 221 220 220 219 219 219 218 219 220 221 223 225 228 230 232 234 236 239 243 247 251 255 259 264 269 272 274 275 278 280 281
218 218 218 218 218 219 219 219 220 220 221 221 220 220 220 220 219 219 219 221 222 225 227 230 233 234 237 239 241 244 247 251 255 259 264 268 271 274 277 279 280 280
217 217 217 217 216 217 217 218 220 220 220 220 220 220 220 220 220 220 220 222 224 227 229 232 234 237 239 241 243 245 248 252 255 259 263 266 270 274 277 279 280 281
216 216 216 216 216 216 217 218 219 220 220 220 220 220 220 219 219 220 221 223 226 229 232 234 236 238 240 242 244 247 249 253 256 259 262 265 270 274 278 280 281 282
215 215 215 215 216 217 217 218 219 219 219 219 218 218 218 218 218 219 222 225 229 232 235 237 239 240 242 244 245 248 252 255 257 259 262 265 270 274 278 280 282 283
214 214 215 215 216 217 217 218 218 218 218 218 218 217 217 218 219 221 225 229 232 235 237 239 241 243 244 246 248 250 253 256 258 260 262 267 271 275 278 281 282 284
214 215 215 215 216 217 217 217 218 218 218 218 218 218 218 219 221 224 228 231 235 237 239 242 244 246 247 249 250 252 254 256 258 261 264 269 272 275 278 281 282 283
215 215 216 216 216 217 217 217 217 217 218 218 218 218 219 221 224 227 231 234 236 239 242 245 247 248 250 251 252 254 255 256 259 262 266 270 273 276 279 280 282 282
214 215 215 215 215 215 215 215 216 216 217 218 218 219 221 224 226 230 233 235 238 241 244 247 250 252 253 254 255 256 257 259 262 265 269 271 273 276 278 279 280 281
213 213 213 213 213 214 214 215 215 215 216 217 218 220 222 224 227 230 233 236 239 242 246 249 252 255 256 257 258 260 261 262 264 266 268 271 273 276 278 279 280 281
212 212 212 213 213 214 214 214 214 214 215 216 218 220 222 225 227 230 234 237 241 244 248 252 254 257 258 260 262 264 266 266 267 269 271 273 276 279 280 282 284 284
211 210 211 212 213 213 213 214 213 214 214 216 217 219 222 225 228 231 235 238 242 246 250 253 257 259 260 262 263 264 264 266 271 274 276 277 279 280 281 283 284 284
209 209 210 211 212 212 213 213 212 213 214 216 218 220 223 226 229 233 236 239 243 247 252 256 259 261 262 262 263 262 258 255 260 266 269 271 273 275 276 278 278 279
208 208 209 210 211 212 212 212 212 214 215 217 218 219 222 226 230 234 237 241 245 249 254 258 261 262 262 261 260 261 258 252 253 257 260 263 266 268 270 271 273 275
207 207 208 209 210 211 211 212 212 214 215 216 218 221 224 228 232 235 239 243 247 251 255 259 261 262 262 262 261 261 259 255 254 255 256 258 261 263 266 268 269 269
206 206 207 208 209 209 210 211 213 214 215 216 218 221 225 229 233 236 240 244 248 252 255 259 262 264 264 263 264 264 260 254 253 254 254 255 257 259 262 265 265 263
207 206 207 208 208 209 210 211 213 214 215 217 218 220 224 228 233 237 242 247 250 252 255 260 264 266 267 266 266 266 262 256 255 257 257 259 261 263 266 268 268 267
208 208 208 207 207 209 211 212 214 214 215 217 219 222 226 230 236 240 244 249 251 253 257 262 265 268 270 270 269 270 266 260 259 261 261 263 266 268 269 270 270 270
209 208 208 208 209 211 212 213 214 214 216 218 220 223 228 232 237 242 246 249 252 256 259 264 267 270 272 274 275 276 271 264 261 263 264 266 268 269 271 271 271 272
209 209 209 210 211 213 214 215 214 213 214 216 219 222 227 233 238 242 246 250 254 258 262 266 270 272 275 279 281 279 275 266 260 259 261 264 265 265 268 272 273 273